User: anonymous
Location: Unspecified
(0.0000°N, 0.0000°E)
Time: 22:15:49
(UTC+02:00)
Language:

Delta 2 Rocket - Orbit

View from above orbital plane
View from above orbital plane
View from above satellite
View from above satellite

Ground track
Ground track

The orbit data is extracted from the following two-line orbital elements,

1 20453U 90008B   14265.43752970  .00005943  00000-0  37958-3 0   803
2 20453 035.6276 311.9713 0322500 178.7158 181.4442 14.74066863300135
Epoch (UTC): 22 September 2014 10:30:02
Eccentricity: 0.0322500
inclination: 35.6276°
perigee height: 421 km
apogee height: 875 km
right ascension of ascending node: 311.9713°
argument of perigee: 178.7158°
revolutions per day: 14.74066863
mean anomaly at epoch: 181.4442°
orbit number at epoch: 30013

The dashed part of the orbit path shows where the satellite is in the earth's shadow,  

DLR